Wind_Speed
47 44 39 37 36 34 33 34 32 31 31 31 30 24 20 18 15 14 13 14 16 17 19 20 21 21 23 22 23 22 22 22 22 24 23 20 19 18 16 16 17 17 16
49 49 45 41 40 38 36 37 36 33 31 29 28 25 21 19 17 14 14 16 17 19 20 20 21 21 22 22 22 21 22 21 23 24 23 19 18 17 18 17 17 15 16
51 52 48 47 42 41 39 38 38 36 33 32 29 27 23 22 20 19 18 18 20 20 22 24 22 21 21 21 22 22 21 22 23 24 22 20 18 17 17 17 17 15 16
55 54 53 52 47 43 43 39 38 39 38 34 32 30 26 25 23 21 21 21 22 24 26 24 24 23 24 25 24 23 20 21 23 23 23 20 19 18 18 18 17 16 18
60 58 54 54 51 47 46 44 40 39 40 39 34 31 30 27 24 23 23 24 26 28 25 25 26 23 23 26 25 24 21 20 21 21 20 19 17 17 18 17 15 17 22
67 64 60 56 56 52 50 47 43 40 40 40 38 34 32 30 27 25 26 25 27 27 26 26 24 24 26 25 25 23 23 22 21 21 21 20 19 18 19 18 20 23 27
73 66 64 62 59 56 54 51 48 45 42 41 41 38 35 32 31 32 30 30 31 30 28 27 25 25 27 26 25 25 24 23 22 22 21 22 22 22 22 22 24 27 29
75 71 66 66 63 60 60 55 51 48 47 44 42 40 40 36 35 34 31 30 31 31 30 28 27 26 27 27 25 25 25 24 23 24 24 25 25 24 25 26 28 30 33
76 76 72 71 68 64 60 59 56 52 50 48 45 43 42 38 36 34 33 31 31 30 30 32 30 28 28 28 27 26 26 27 27 27 28 29 29 29 29 30 31 32 33
70 73 76 75 70 68 63 61 59 56 55 52 50 49 46 43 40 37 36 35 34 36 36 34 33 33 31 31 30 29 28 28 28 30 32 32 32 32 32 33 34 35 38
69 68 62 74 74 73 70 69 67 63 59 58 55 53 51 48 44 40 39 40 39 38 37 36 35 35 35 33 33 30 30 29 30 32 33 35 36 36 35 35 36 38 42
73 69 67 57 71 76 73 73 71 69 65 62 62 57 55 52 49 47 44 43 41 43 41 40 40 37 38 34 33 34 32 33 32 34 35 36 37 37 37 38 41 42 46
64 69 66 63 57 67 68 70 71 74 73 65 63 59 58 57 52 51 50 47 47 45 46 43 42 42 42 39 37 37 38 39 40 39 40 39 39 40 42 41 40 38 47
73 61 62 68 53 58 59 61 69 70 69 71 67 63 62 60 58 56 55 53 48 48 49 47 47 49 47 45 42 44 47 45 45 46 47 44 42 42 45 42 39 45 52
76 63 66 64 67 57 59 65 68 71 71 69 70 71 62 61 61 58 59 57 53 53 52 48 50 52 49 48 47 43 43 46 48 49 51 50 47 45 46 45 44 47 56
83 69 62 68 69 66 58 62 68 75 66 69 72 72 66 62 63 60 62 59 58 59 56 55 57 56 52 48 49 44 47 45 47 46 47 48 49 50 50 51 49 53 63
78 71 65 64 67 69 63 61 63 67 72 69 68 63 58 59 60 61 60 59 59 53 55 57 60 61 57 55 50 46 44 45 46 47 47 51 51 53 56 53 58 64 68
80 79 75 74 77 69 64 57 56 60 65 66 67 63 58 58 55 55 57 56 56 60 60 60 58 56 53 53 49 49 49 45 45 49 53 54 58 55 58 62 62 65 69
81 77 69 73 73 66 61 56 53 58 61 64 65 63 59 58 56 61 63 64 63 60 63 56 47 45 48 47 49 50 53 53 53 54 55 58 59 64 62 64 68 70 72
84 75 85 71 70 71 72 57 53 55 55 58 65 65 67 65 66 65 66 62 61 57 54 52 51 53 54 54 57 63 60 57 61 60 59 66 68 71 67 71 77 81 75
92 92 91 92 88 78 76 58 57 58 55 58 58 59 64 68 64 61 60 58 58 56 56 58 57 57 60 65 71 73 73 67 68 69 72 70 72 76 81 79 77 80 85
84 92 90 87 76 75 77 67 61 58 60 55 55 57 55 62 63 62 62 60 58 60 61 61 63 66 72 75 78 78 77 75 74 75 76 84 88 89 86 85 84 85 73
80 78 79 78 70 65 68 69 63 56 61 58 61 61 66 62 65 66 65 59 63 64 64 67 70 73 76 78 82 81 82 82 78 85 83 93 94 89 87 85 79 84 80
84 79 74 75 67 66 66 68 69 65 66 63 58 60 66 68 67 66 61 63 66 65 73 75 78 78 81 80 84 81 80 84 78 90 93 91 94 90 76 81 78 83 83
85 84 80 78 71 69 69 71 71 74 77 77 78 78 76 72 75 75 77 74 77 79 78 79 78 80 84 84 84 85 82 90 92 90 87 88 86 80 79 86 87 90 88
84 89 76 82 70 72 74 75 74 65 66 75 76 82 88 87 86 89 89 81 83 83 84 80 81 81 82 85 87 90 88 88 90 86 85 89 87 84 85 94 89 97 97
Wind_Direction
235 235 241 245 245 246 250 250 252 255 257 259 261 265 266 269 269 270 279 285 286 295 301 301 299 301 303 304 305 304 305 307 310 316 318 315 318 320 322 323 322 325 331
235 237 239 241 244 246 249 248 252 253 258 259 259 260 262 265 270 269 275 282 287 291 295 301 302 300 301 302 303 303 301 302 307 315 316 314 314 314 314 316 320 323 326
235 237 239 240 243 246 248 250 250 253 255 259 259 256 259 265 272 271 274 277 286 288 293 295 297 296 300 304 300 298 296 299 306 314 315 312 310 309 312 312 310 313 321
233 237 239 238 240 242 247 250 250 253 255 256 259 259 260 263 264 270 271 274 280 287 289 292 295 294 298 303 302 296 292 296 303 311 312 311 310 305 305 304 307 311 317
230 232 237 237 238 241 245 248 250 252 254 257 257 260 264 263 264 268 272 276 278 284 288 290 295 291 296 301 303 293 286 289 298 309 309 306 303 302 301 302 307 312 319
231 232 235 237 239 240 242 247 251 253 255 257 260 260 264 263 263 267 273 278 282 284 283 290 290 287 290 297 299 293 287 286 289 299 303 306 301 303 305 310 312 312 315
231 228 232 233 237 237 240 244 251 253 254 257 259 260 261 261 264 265 271 277 277 281 284 285 288 291 291 291 294 292 286 284 285 291 295 299 301 302 301 299 305 309 312
230 229 233 232 232 234 239 240 247 252 254 255 257 259 260 261 262 265 272 274 277 277 278 283 284 291 295 290 289 289 287 282 283 286 290 293 298 301 303 304 306 307 308
232 231 234 234 234 236 237 239 242 248 253 255 256 258 260 263 265 268 271 274 274 274 279 279 280 285 292 285 286 284 286 282 282 283 287 290 295 299 301 304 305 307 310
233 236 233 233 235 237 236 239 241 247 251 254 256 259 260 262 265 268 269 271 271 272 274 278 276 280 283 282 281 279 282 283 286 289 289 290 292 295 298 302 306 310 311
230 232 232 232 235 236 239 240 243 245 248 251 252 256 258 260 262 266 269 269 272 273 271 272 276 280 277 279 278 281 284 284 288 290 290 291 294 293 295 298 303 307 312
220 228 228 230 236 238 238 242 247 245 243 249 250 253 255 256 261 262 266 268 266 271 272 273 274 279 277 279 275 275 278 284 285 286 288 286 289 291 292 296 301 309 316
224 229 228 231 234 239 241 240 244 245 248 248 247 251 253 254 257 264 268 268 268 271 271 273 273 272 272 274 273 278 278 282 281 282 285 286 284 288 292 293 303 309 319
213 226 227 231 230 233 238 242 245 247 247 245 244 249 253 254 257 260 266 269 267 273 271 275 271 271 272 274 276 278 279 280 279 281 284 283 285 289 287 288 294 313 323
205 209 220 228 234 236 238 242 245 247 248 246 247 250 253 255 257 260 262 269 273 273 271 270 268 270 273 274 277 277 282 282 282 283 283 284 283 284 288 286 291 303 316
213 213 225 227 228 232 238 237 241 244 245 248 250 251 258 256 259 262 264 271 268 273 271 268 270 272 274 273 278 279 281 280 284 285 284 285 282 285 285 285 288 294 311
205 202 208 216 220 231 234 236 238 241 246 249 249 252 255 258 258 261 262 261 267 269 269 272 273 272 272 274 273 274 279 285 285 286 284 283 284 285 288 288 291 300 305
201 201 214 222 231 231 231 232 235 240 246 248 247 251 254 253 255 254 257 260 263 269 271 275 274 274 270 269 267 273 280 283 284 283 285 283 286 287 293 287 295 298 302
204 201 210 218 216 222 228 232 241 240 244 242 239 240 247 254 251 253 258 260 266 267 269 271 267 264 261 261 265 274 282 284 286 284 284 286 286 291 292 290 293 296 297
195 198 209 215 213 221 231 238 240 240 242 243 240 243 245 249 251 257 260 263 263 264 266 262 258 258 257 260 273 276 285 281 284 284 286 287 289 294 289 290 293 294 297
210 201 209 221 225 235 230 232 233 236 244 249 247 242 244 249 252 254 258 259 263 264 264 259 262 264 264 267 277 279 281 282 282 283 285 290 290 293 294 294 295 296 298
208 213 220 224 226 232 229 227 223 233 240 240 236 245 239 242 245 250 254 259 264 266 264 266 269 270 273 273 274 277 280 283 283 284 283 292 293 292 295 299 301 305 309
205 212 218 224 216 220 216 221 228 228 228 235 239 242 240 246 244 250 257 260 264 265 265 264 269 270 271 274 276 277 280 284 282 287 291 290 293 298 299 304 300 304 308
205 207 209 212 217 221 225 229 229 230 229 232 240 240 244 247 252 253 251 256 259 259 262 267 268 274 276 276 277 281 280 283 282 286 291 294 296 300 291 294 297 303 305
210 213 217 219 224 226 225 228 232 233 240 237 238 244 246 246 250 252 253 255 251 258 264 267 270 274 277 274 277 281 281 284 290 293 293 292 294 293 290 292 300 299 302
209 212 218 221 220 219 225 232 237 234 241 241 248 247 250 254 253 253 254 255 257 259 263 265 267 271 272 271 276 281 284 287 289 287 287 288 288 292 292 298 293 300 303
Height
10874 10877 10882 10885 10887 10890 10893 10895 10897 10899 10901 10903 10905 10906 10907 10907 10907 10908 10908 10909 10908 10908 10908 10908 10908 10907 10906 10905 10904 10903 10901 10900 10898 10896 10894 10893 10891 10890 10889 10887 10885 10884 10882
10868 10872 10875 10879 10882 10885 10888 10890 10892 10894 10896 10899 10900 10902 10904 10904 10904 10905 10905 10906 10906 10906 10906 10905 10905 10904 10903 10902 10901 10900 10899 10897 10896 10894 10892 10890 10889 10888 10887 10885 10884 10882 10880
10861 10865 10870 10873 10876 10880 10883 10885 10887 10890 10892 10894 10896 10898 10900 10901 10902 10902 10903 10903 10903 10903 10903 10902 10901 10901 10900 10899 10898 10897 10895 10894 10893 10891 10889 10888 10886 10885 10884 10883 10881 10879 10878
10851 10856 10861 10865 10868 10873 10876 10879 10882 10885 10887 10890 10892 10894 10896 10897 10898 10899 10899 10900 10900 10900 10900 10899 10899 10898 10897 10896 10895 10893 10892 10891 10890 10888 10886 10885 10884 10882 10881 10879 10878 10877 10875
10842 10846 10851 10856 10861 10865 10869 10872 10875 10879 10882 10884 10887 10890 10891 10893 10894 10895 10895 10896 10897 10897 10896 10896 10896 10895 10894 10893 10892 10890 10889 10888 10887 10885 10884 10882 10880 10879 10878 10877 10875 10874 10873
10830 10836 10841 10847 10853 10857 10861 10865 10869 10872 10875 10878 10881 10884 10886 10888 10889 10890 10891 10892 10892 10892 10893 10893 10893 10892 10891 10889 10888 10887 10886 10885 10883 10882 10881 10879 10878 10877 10876 10874 10873 10871 10869
10817 10827 10830 10837 10843 10849 10853 10857 10861 10865 10868 10872 10875 10879 10881 10882 10884 10886 10887 10888 10888 10888 10889 10889 10889 10888 10887 10886 10885 10883 10882 10881 10880 10879 10877 10876 10875 10874 10872 10871 10869 10867 10865
10806 10818 10821 10826 10833 10840 10845 10850 10853 10857 10860 10864 10868 10872 10874 10877 10879 10880 10882 10882 10883 10884 10884 10885 10885 10884 10883 10882 10881 10880 10879 10877 10876 10875 10874 10872 10871 10870 10869 10867 10865 10863 10861
10797 10807 10811 10817 10825 10832 10838 10842 10846 10849 10853 10857 10861 10865 10867 10870 10873 10874 10876 10877 10878 10878 10879 10879 10880 10880 10879 10878 10876 10875 10874 10874 10872 10871 10870 10869 10868 10866 10865 10863 10861 10859 10856
10787 10794 10800 10808 10816 10822 10829 10835 10838 10841 10846 10850 10854 10858 10861 10863 10866 10868 10869 10870 10871 10872 10873 10873 10873 10874 10873 10873 10872 10870 10870 10869 10868 10867 10866 10865 10863 10862 10860 10858 10856 10854 10851
10781 10786 10794 10800 10805 10810 10818 10824 10829 10834 10838 10841 10845 10849 10853 10856 10858 10861 10863 10863 10864 10865 10866 10866 10867 10867 10867 10866 10866 10866 10865 10864 10863 10862 10861 10860 10858 10857 10855 10853 10851 10849 10846
10770 10774 10784 10789 10796 10800 10808 10813 10819 10824 10828 10833 10835 10841 10845 10848 10851 10853 10855 10856 10857 10857 10858 10860 10860 10861 10860 10860 10860 10860 10859 10858 10857 10856 10854 10853 10852 10850 10849 10848 10846 10844 10840
10751 10761 10778 10781 10786 10790 10797 10804 10809 10814 10819 10824 10827 10832 10835 10839 10842 10845 10847 10848 10850 10851 10851 10852 10853 10853 10853 10853 10853 10852 10852 10853 10852 10850 10848 10847 10846 10845 10844 10842 10840 10837 10833
10745 10755 10770 10773 10776 10780 10787 10797 10799 10804 10809 10814 10817 10822 10826 10830 10834 10837 10838 10840 10842 10843 10844 10845 10844 10845 10846 10846 10846 10845 10844 10844 10843 10842 10841 10840 10839 10838 10836 10834 10832 10829 10826
10737 10748 10761 10762 10769 10771 10779 10785 10788 10795 10798 10803 10808 10812 10817 10821 10825 10827 10830 10832 10833 10835 10836 10837 10836 10836 10838 10838 10838 10837 10837 10836 10834 10834 10833 10832 10831 10830 10828 10826 10824 10821 10818
10728 10742 10748 10752 10753 10756 10767 10773 10777 10783 10789 10793 10798 10804 10808 10812 10815 10819 10821 10822 10824 10825 10826 10827 10827 10829 10830 10830 10830 10829 10828 10826 10826 10825 10823 10823 10821 10821 10819 10817 10815 10813 10809
10714 10729 10737 10736 10737 10749 10758 10763 10768 10773 10778 10784 10789 10795 10799 10803 10805 10808 10810 10812 10814 10815 10816 10817 10817 10819 10820 10820 10820 10818 10818 10817 10817 10816 10815 10815 10813 10812 10810 10810 10807 10804 10800
10703 10718 10720 10723 10731 10742 10749 10753 10758 10763 10768 10773 10780 10786 10789 10793 10795 10797 10800 10802 10804 10805 10805 10806 10808 10808 10808 10808 10808 10808 10808 10808 10808 10808 10807 10806 10804 10802 10800 10800 10797 10794 10791
10691 10703 10709 10712 10728 10733 10740 10745 10751 10757 10760 10764 10769 10776 10781 10783 10785 10787 10789 10792 10794 10794 10795 10796 10798 10797 10797 10797 10796 10797 10797 10797 10798 10798 10797 10795 10794 10793 10791 10788 10786 10782 10779
10682 10692 10698 10706 10714 10722 10732 10739 10744 10748 10752 10756 10760 10766 10770 10773 10774 10777 10779 10782 10782 10783 10784 10785 10786 10786 10786 10785 10785 10784 10785 10786 10785 10785 10783 10782 10782 10781 10781 10778 10774 10770 10768
10670 10681 10689 10694 10697 10713 10722 10730 10734 10740 10744 10747 10751 10755 10759 10762 10764 10766 10769 10772 10770 10772 10775 10775 10776 10776 10777 10776 10773 10773 10772 10774 10773 10770 10768 10768 10767 10766 10764 10764 10761 10757 10755
10665 10675 10680 10684 10697 10705 10716 10722 10723 10727 10735 10737 10740 10745 10747 10750 10752 10755 10757 10758 10759 10760 10763 10764 10765 10765 10762 10762 10760 10760 10760 10760 10759 10754 10754 10752 10751 10750 10749 10744 10742 10736 10732
10659 10666 10673 10680 10689 10697 10702 10707 10711 10718 10721 10726 10728 10731 10735 10737 10740 10741 10743 10746 10746 10748 10748 10750 10749 10750 10747 10747 10745 10744 10744 10745 10743 10741 10739 10735 10732 10731 10729 10726 10721 10719 10715
10649 10656 10663 10671 10679 10688 10693 10697 10699 10706 10711 10714 10717 10718 10724 10727 10728 10725 10728 10732 10733 10734 10734 10734 10734 10735 10733 10730 10729 10729 10728 10726 10725 10727 10721 10715 10712 10713 10708 10705 10701 10699 10698
10639 10646 10652 10659 10669 10677 10681 10688 10692 10695 10696 10698 10703 10706 10712 10713 10711 10711 10712 10717 10717 10720 10720 10720 10721 10720 10720 10719 10716 10714 10714 10711 10706 10705 10701 10697 10693 10687 10687 10685 10683 10682 10682
10624 10636 10640 10650 10658 10664 10669 10673 10675 10679 10679 10683 10686 10692 10693 10692 10695 10695 10694 10696 10700 10705 10706 10709 10705 10706 10707 10704 10703 10699 10697 10694 10691 10689 10686 10682 10679 10672 10670 10669 10665 10665 10666